Location: Gradaro
(45.0833°N, 10.8833°E)
Time: 00:41:51
(UTC+00:00)

Cosmos 2263 Rocket - Pass Details

Date: 24 April 2021
Orbit: 824 x 848 km, 71.0° (Epoch: 15 May)

Event Time Altitude Azimuth Distance (km) Brightness Sun altitude
Exits shadow 23:23:04 - 275° (W) 3,032 5.1 -31.7°
Reaches altitude 10° 23:25:59 10° 298° (WNW) 2,430 4.8 -31.7°
Maximum altitude 23:28:14 12° 322° (NW) 2,267 4.9 -31.6°
Drops below altitude 10° 23:30:29 10° 346° (NNW) 2,438 5.4 -31.6°
Sets 23:34:38 0° 16° (NNE) 3,380 6.4 -31.5°
